Weather History for Avoca, PA

Change the Weather History Date:

Sunday, December 16, 2012

  Actual Average Record
Temperature  
Mean Temperature 43 °F 30 °F  
Max Temperature 46 °F 37 °F 57 °F (1971)
Min Temperature 40 °F 24 °F 1 °F (1917)
Degree Days  
Heating Degree Days 22 35  
Month to date heating degree days 399 513  
Since 1 July heating degree days 1626 1826  
Cooling Degree Days 0 0  
Month to date cooling degree days 0 0  
Year to date cooling degree days 864 580  
Moisture  
Dew Point 36 °F    
Average Humidity 81    
Maximum Humidity 89    
Minimum Humidity 73    
Precipitation  
Precipitation 0.01 in 0.08 in 1.46 in (1902)
Month to date precipitation 0.99 1.50  
Year to date precipitation 35.16 37.08  
Sea Level Pressure  
Sea Level Pressure 30.00 in    
Wind  
Wind Speed 5 mph (ESE)    
Max Wind Speed 12 mph    
Max Gust Speed 20 mph    
Visibility 10 miles    
Events Rain    
T = Trace of Precipitation, MM = Missing Value Source: NWS Daily Summary

Daily Weather History Graph

Daily Weather History Graph

Search for Another Location

Airport:

Trip Planner

Search our weather history database for the weather conditions in past years. The results will help you decide how hot, cold, wet, or windy it might be!

Date:

Astronomy

Dec. 16, 2012 Rise Set
Actual Time 7:22 AM EST 4:34 PM EST
Civil Twilight 6:51 AM EST 5:06 PM EST
Nautical Twilight 6:16 AM EST 5:41 PM EST
Astronomical Twilight 5:42 AM EST 6:14 PM EST
Moon 9:52 AM EST (12/16) 8:48 PM EST (12/16)
Length of Visible Light 10h 14m
Length of Day
9h 12m
Waxing Crescent, 16% of the Moon is Illuminated
Dec 16
Waxing Crescent
Dec 20
First Quarter
Dec 28
Full
Jan 4
Last Quarter
Jan 11
New

Hourly Weather History & Observations

Time (EST) Temp. Windchill Dew Point Humidity Pressure Visibility Wind Dir Wind Speed Gust Speed Precip Events Conditions
12:32 AM 39.2 °F - 33.8 °F 81% 30.12 in 9.0 mi Calm Calm - N/A   Overcast
12:52 AM 39.2 °F 35.9 °F 33.8 °F 81% 30.12 in 9.0 mi SSE 4.6 mph - N/A   Overcast
12:54 AM 39.9 °F - 33.1 °F 77% 30.14 in 9.0 mi Calm Calm - N/A   Overcast
1:17 AM 39.2 °F - 33.8 °F 81% 30.10 in 10.0 mi Calm Calm - N/A   Overcast
1:54 AM 39.9 °F 34.5 °F 33.1 °F 77% 30.11 in 10.0 mi SE 8.1 mph - N/A   Overcast
2:54 AM 41.0 °F 39.0 °F 33.8 °F 76% 30.07 in 10.0 mi Variable 3.5 mph - N/A   Overcast
3:14 AM 41.0 °F 39.0 °F 33.8 °F 76% 30.07 in 10.0 mi Variable 3.5 mph - N/A   Overcast
3:31 AM 41.0 °F 36.4 °F 33.8 °F 76% 30.05 in 10.0 mi SE 6.9 mph - N/A   Overcast
3:54 AM 41.0 °F - 34.0 °F 76% 30.08 in 10.0 mi Calm Calm - N/A   Overcast
4:05 AM 41.0 °F 38.0 °F 33.8 °F 76% 30.06 in 10.0 mi Variable 4.6 mph - N/A   Overcast
4:54 AM 41.0 °F 39.0 °F 34.0 °F 76% 30.06 in 10.0 mi Variable 3.5 mph - N/A   Overcast
5:14 AM 41.0 °F 39.0 °F 33.8 °F 76% 30.05 in 10.0 mi South 3.5 mph - N/A   Overcast
5:54 AM 42.1 °F 40.2 °F 35.1 °F 76% 30.04 in 10.0 mi ESE 3.5 mph - N/A   Overcast
6:19 AM 42.8 °F - 35.6 °F 76% 30.04 in 10.0 mi Calm Calm - N/A   Overcast
6:54 AM 42.1 °F 40.2 °F 36.0 °F 79% 30.05 in 10.0 mi ENE 3.5 mph - N/A   Overcast
7:54 AM 43.0 °F - 37.0 °F 80% 30.04 in 9.0 mi Calm Calm - N/A   Overcast
8:54 AM 43.0 °F - 37.0 °F 80% 30.03 in 8.0 mi Calm Calm - 0.00 in   Overcast
9:54 AM 44.1 °F 40.1 °F 37.9 °F 79% 30.03 in 8.0 mi SE 6.9 mph - N/A   Overcast
10:54 AM 44.1 °F 40.1 °F 39.0 °F 82% 30.01 in 8.0 mi SE 6.9 mph - N/A   Overcast
11:54 AM 45.0 °F 43.5 °F 39.0 °F 80% 29.99 in 9.0 mi Variable 3.5 mph - N/A   Overcast
12:54 PM 46.0 °F 43.9 °F 39.0 °F 76% 29.96 in 9.0 mi ESE 4.6 mph - 0.00 in Rain Light Rain
1:54 PM 45.0 °F 42.6 °F 39.0 °F 80% 29.94 in 10.0 mi ESE 4.6 mph - 0.00 in   Overcast
2:03 PM 44.6 °F 40.7 °F 39.2 °F 81% 29.93 in 10.0 mi Variable 6.9 mph - N/A   Overcast
2:54 PM 44.1 °F 39.5 °F 39.0 °F 82% 29.93 in 10.0 mi ESE 8.1 mph - 0.00 in   Overcast
3:54 PM 43.0 °F 38.8 °F 39.0 °F 86% 29.92 in 10.0 mi East 6.9 mph - N/A   Overcast
4:54 PM 43.0 °F 40.3 °F 37.9 °F 82% 29.91 in 10.0 mi Variable 4.6 mph - N/A   Overcast
5:54 PM 43.0 °F 39.5 °F 37.0 °F 80% 29.91 in 10.0 mi Variable 5.8 mph - N/A   Overcast
6:54 PM 43.0 °F 37.7 °F 37.0 °F 80% 29.90 in 10.0 mi ESE 9.2 mph 17.3 mph N/A   Overcast
7:54 PM 42.1 °F 37.7 °F 37.0 °F 82% 29.89 in 10.0 mi Variable 6.9 mph - N/A   Overcast
8:54 PM 42.1 °F 39.2 °F 37.0 °F 82% 29.88 in 10.0 mi Variable 4.6 mph - N/A   Overcast
9:54 PM 42.1 °F 38.4 °F 37.0 °F 82% 29.88 in 10.0 mi Variable 5.8 mph - 0.00 in   Overcast
10:54 PM 41.0 °F 38.0 °F 37.0 °F 86% 29.88 in 10.0 mi Variable 4.6 mph - N/A   Overcast
11:54 PM 41.0 °F 39.0 °F 37.0 °F 86% 29.86 in 10.0 mi Variable 3.5 mph - 0.00 in Rain Light Rain